KF8LO-1 Weather Reports


time (UTC)temp
F
wind
direction
speed
knots
gust
knots
rain 1hr
in
rain 24hr
in
rain mn
in
humidity
%
barometer
mb
20260510094945 54 270 6.1 17.4 0.00 0.00 0.00 72
20260510094445 54 303 6.1 13.9 0.00 0.00 0.00 72
20260510093945 54 305 9.6 16.5 0.00 0.00 0.00 71
20260510093445 54 293 8.7 13.9 0.00 0.00 0.00 72
20260510092945 54 313 3.5 13.0 0.00 0.00 0.00 71
20260510092445 54 272 6.1 14.8 0.00 0.00 0.00 71
20260510091945 54 285 7.0 15.6 0.00 0.00 0.00 71
20260510091445 54 285 8.7 14.8 0.00 0.00 0.00 71
20260510090945 54 292 6.1 13.9 0.00 0.00 0.00 70
20260510090445 54 298 6.1 20.0 0.00 0.00 0.00 70
20260510085945 54 300 9.6 12.2 0.00 0.00 0.00 70
20260510085445 54 295 5.2 11.3 0.00 0.00 0.00 70
20260510084945 54 285 6.1 13.0 0.00 0.00 0.00 70
20260510084445 54 272 7.0 13.9 0.00 0.00 0.00 69
20260510083945 54 246 2.6 11.3 0.00 0.00 0.00 69
20260510083445 54 281 7.8 13.0 0.00 0.00 0.00 69
20260510082945 54 296 6.1 13.9 0.00 0.00 0.00 69
20260510082445 54 293 4.3 19.1 0.00 0.00 0.00 69
20260510081945 54 278 8.7 13.9 0.00 0.00 0.00 69
20260510081445 54 282 7.8 14.8 0.00 0.00 0.00 70
20260510080945 54 296 4.3 9.6 0.00 0.00 0.00 70
20260510080445 54 300 6.1 14.8 0.00 0.00 0.00 70
20260510075945 54 288 6.1 15.6 0.00 0.00 0.00 71
20260510075445 54 312 5.2 13.0 0.00 0.00 0.00 71
20260510074945 54 300 11.3 12.2 0.00 0.00 0.00 72
20260510074445 54 305 4.3 12.2 0.00 0.00 0.00 72
20260510073945 54 292 8.7 14.8 0.00 0.00 0.00 72
20260510073446 54 299 8.7 11.3 0.00 0.00 0.00 73
20260510072946 54 296 6.1 13.0 0.00 0.00 0.00 73
20260510072446 53 300 7.8 12.2 0.00 0.00 0.00 74
20260510071946 53 284 7.8 13.0 0.00 0.00 0.00 74
20260510071446 53 295 4.3 14.8 0.00 0.00 0.00 75
20260510070946 53 37 3.5 12.2 0.00 0.00 0.00 75
20260510070446 53 302 12.2 12.2 0.00 0.00 0.00 75
20260510065946 53 295 5.2 12.2 0.00 0.00 0.00 75
20260510065446 53 239 7.8 13.0 0.00 0.00 0.00 75
20260510064946 53 305 6.1 16.5 0.00 0.00 0.00 76
20260510064446 53 220 6.1 15.6 0.00 0.00 0.00 76
20260510063946 53 292 12.2 17.4 0.00 0.00 0.00 76
20260510063446 53 313 9.6 13.9 0.00 0.00 0.00 76
20260510062946 53 299 8.7 13.0 0.00 0.00 0.00 76
20260510062446 54 322 4.3 11.3 0.00 0.00 0.00 75
20260510061946 54 313 7.0 15.6 0.00 0.00 0.00 75
20260510061446 54 315 8.7 13.9 0.00 0.00 0.00 75
20260510060946 54 295 5.2 13.0 0.00 0.00 0.00 75
20260510060446 54 298 7.8 14.8 0.00 0.00 0.00 74
20260510055946 54 286 9.6 20.0 0.00 0.00 0.00 74
20260510055446 54 267 9.6 13.9 0.00 0.00 0.00 74
20260510054946 54 267 7.0 16.5 0.00 0.00 0.00 73
20260510054446 54 296 7.0 12.2 0.00 0.00 0.00 73
20260510053946 54 300 5.2 10.4 0.00 0.00 0.00 73
20260510053446 54 305 7.8 15.6 0.00 0.00 0.00 73
20260510052946 54 288 5.2 13.9 0.00 0.00 0.00 72
20260510052446 54 358 4.3 12.2 0.00 0.00 0.00 72
20260510051946 54 291 7.8 14.8 0.00 0.00 0.00 71
20260510051446 54 265 3.5 12.2 0.00 0.00 0.00 71
20260510050946 54 293 9.6 16.5 0.00 0.00 0.00 71
20260510050446 54 257 3.5 13.9 0.00 0.00 0.00 70
20260510045946 54 300 7.0 20.9 0.00 0.00 0.00 70
20260510045446 54 286 7.0 15.6 0.00 0.00 0.00 70
20260510044946 54 268 5.2 15.6 0.00 0.00 0.00 70
20260510044446 54 246 5.2 13.0 0.00 0.00 0.00 70
20260510043946 54 320 5.2 11.3 0.00 0.00 0.00 69
20260510043446 54 288 7.0 13.0 0.00 0.00 0.00 69
20260510042946 54 299 7.0 13.0 0.00 0.00 0.00 69
20260510042446 54 299 3.5 14.8 0.00 0.00 0.00 68
20260510041946 55 295 5.2 14.8 0.00 0.00 0.00 68
20260510041446 55 286 12.2 17.4 0.00 0.00 0.00 68
20260510040946 55 307 7.0 13.9 0.00 0.00 0.00 68
20260510040446 55 317 7.0 13.0 0.00 0.00 0.00 68
20260510035946 55 295 5.2 15.6 0.00 0.00 0.00 68
20260510035446 55 281 8.7 11.3 0.00 0.00 0.00 67
20260510034946 55 253 5.2 15.6 0.00 0.00 0.00 68
20260510034446 55 307 4.3 13.0 0.00 0.00 0.00 67
20260510033946 55 313 6.1 15.6 0.00 0.00 0.00 66
20260510033446 55 241 2.6 11.3 0.00 0.00 0.00 66
20260510032946 55 272 3.5 12.2 0.00 0.00 0.00 66
20260510032446 55 327 2.6 13.9 0.00 0.00 0.00 66
20260510031946 56 295 6.1 15.6 0.00 0.00 0.00 65
20260510031446 56 230 5.2 14.8 0.00 0.00 0.00 65
20260510030946 56 315 2.6 13.0 0.00 0.00 0.00 65
20260510030446 55 285 4.3 14.8 0.00 0.00 0.00 64
20260510025946 56 316 3.5 13.9 0.00 0.00 0.00 64
20260510025446 56 299 2.6 13.9 0.00 0.00 0.00 63
20260510024946 56 277 6.1 11.3 0.00 0.00 0.00 63
20260510024446 56 300 3.5 16.5 0.00 0.00 0.00 63
20260510023946 56 312 5.2 13.0 0.00 0.00 0.00 63
20260510023446 56 291 5.2 10.4 0.00 0.00 0.00 63
20260510022946 56 303 9.6 10.4 0.00 0.00 0.00 62
20260510022446 56 338 0.9 8.7 0.00 0.00 0.00 62
20260510021946 56 300 5.2 8.7 0.00 0.00 0.00 62
20260510021446 56 312 1.7 14.8 0.00 0.00 0.00 62
20260510020946 56 312 5.2 13.0 0.00 0.00 0.00 62
20260510020447 56 298 2.6 11.3 0.00 0.00 0.00 62
20260510015947 56 289 6.1 13.0 0.00 0.00 0.00 62
20260510015447 56 317 4.3 13.0 0.00 0.00 0.00 62
20260510014947 57 265 4.3 10.4 0.00 0.00 0.00 61
20260510014447 57 265 5.2 11.3 0.00 0.00 0.00 61
20260510013947 57 292 4.3 9.6 0.00 0.00 0.00 60
20260510013447 57 320 3.5 12.2 0.00 0.00 0.00 60
20260510012947 57 319 5.2 13.9 0.00 0.00 0.00 59
20260510012447 57 309 3.5 12.2 0.00 0.00 0.00 59
20260510011947 57 312 6.1 10.4 0.00 0.00 0.00 58
20260510011447 57 302 1.7 10.4 0.00 0.00 0.00 58
20260510010947 58 278 6.1 8.7 0.00 0.00 0.00 58
20260510010447 58 315 7.0 9.6 0.00 0.00 0.00 57
20260510005947 58 289 1.7 9.6 0.00 0.00 0.00 57
20260510005447 58 315 1.7 9.6 0.00 0.00 0.00 56
20260510004947 58 258 4.3 11.3 0.00 0.00 0.00 57
20260510004447 58 319 1.7 10.4 0.00 0.00 0.00 57
20260510003947 58 309 4.3 11.3 0.00 0.00 0.00 56
20260510003447 59 264 4.3 9.6 0.00 0.00 0.00 56
20260510002947 59 327 5.2 8.7 0.00 0.00 0.00 56
20260510002447 59 260 7.8 7.8 0.00 0.00 0.00 55
20260510001947 59 271 1.7 9.6 0.00 0.00 0.00 55
20260510001447 59 284 5.2 8.7 0.00 0.00 0.00 55
20260510000947 59 284 1.7 8.7 0.00 0.00 0.00 55
20260510000448 60 305 2.6 10.4 0.00 0.00 0.00 54
20260509235947 60 281 1.7 8.7 0.00 0.00 0.00 54
20260509235447 60 302 3.5 11.3 0.00 0.00 0.00 53
20260509234947 60 282 4.3 7.8 0.00 0.00 0.00 53
20260509234447 60 284 3.5 10.4 0.00 0.00 0.00 53
20260509233947 60 322 3.5 12.2 0.00 0.00 0.00 53
20260509233447 60 296 7.8 10.4 0.00 0.00 0.00 53
20260509232947 60 306 4.3 8.7 0.00 0.00 0.00 53
20260509232447 60 340 0.9 8.7 0.00 0.00 0.00 53
20260509231947 60 291 5.2 11.3 0.00 0.00 0.00 53
20260509231447 61 306 4.3 11.3 0.00 0.00 0.00 52
20260509230947 61 296 4.3 7.8 0.00 0.00 0.00 53
20260509230447 60 295 3.5 11.3 0.00 0.00 0.00 53
20260509225947 60 330 0.9 10.4 0.00 0.00 0.00 53
20260509225447 60 293 2.6 7.0 0.00 0.00 0.00 54
20260509224947 60 358 1.7 11.3 0.00 0.00 0.00 53
20260509224447 60 343 4.3 10.4 0.00 0.00 0.00 53
20260509223947 60 312 5.2 8.7 0.00 0.00 0.00 53
20260509223447 60 299 4.3 10.4 0.00 0.00 0.00 52
20260509222947 60 303 7.8 10.4 0.00 0.00 0.00 51
20260509222447 60 319 4.3 8.7 0.00 0.00 0.00 52
20260509221947 60 322 3.5 12.2 0.00 0.00 0.00 53
20260509221447 60 257 1.7 8.7 0.00 0.00 0.00 53
20260509220948 60 330 3.5 12.2 0.00 0.00 0.00 52
20260509220447 60 309 6.1 10.4 0.00 0.00 0.00 52
20260509215947 60 323 4.3 13.0 0.00 0.00 0.00 52
20260509215447 60 289 3.5 10.4 0.00 0.00 0.00 52
20260509214947 60 307 2.6 10.4 0.00 0.00 0.00 52
20260509214447 60 291 6.1 11.3 0.00 0.00 0.00 51
20260509213947 60 309 5.2 12.2 0.00 0.00 0.00 51
20260509213447 60 14 2.6 16.5 0.00 0.00 0.00 50
20260509212947 60 310 4.3 10.4 0.00 0.00 0.00 51
20260509212447 60 261 5.2 8.7 0.00 0.00 0.00 51
20260509211947 60 275 5.2 13.0 0.00 0.00 0.00 50
20260509211447 60 292 9.6 15.6 0.00 0.00 0.00 49
20260509210947 61 309 6.1 13.0 0.00 0.00 0.00 49
20260509210447 61 302 5.2 19.1 0.00 0.00 0.00 49
20260509205947 61 331 6.1 13.9 0.00 0.00 0.00 48
20260509205447 62 313 6.1 15.6 0.00 0.00 0.00 47
20260509204947 62 305 4.3 9.6 0.00 0.00 0.00 48
20260509204447 62 289 5.2 9.6 0.00 0.00 0.00 48
20260509203947 61 243 5.2 12.2 0.00 0.00 0.00 50
20260509203447 61 278 3.5 10.4 0.00 0.00 0.00 48
20260509202947 61 278 6.1 13.0 0.00 0.00 0.00 49
20260509202448 61 281 8.7 14.8 0.00 0.00 0.00 50
20260509201947 61 298 7.8 12.2 0.00 0.00 0.00 49
20260509201448 61 310 1.7 10.4 0.00 0.00 0.00 48
20260509200948 61 309 6.1 15.6 0.00 0.00 0.00 48
20260509200448 61 313 6.1 13.9 0.00 0.00 0.00 47
20260509195948 62 333 2.6 10.4 0.00 0.00 0.00 47
20260509195448 62 281 7.8 16.5 0.00 0.00 0.00 47
20260509194948 61 232 1.7 13.0 0.00 0.00 0.00 47
20260509194448 61 333 0.9 13.0 0.00 0.00 0.00 47
20260509193948 61 281 3.5 12.2 0.00 0.00 0.00 45
20260509193448 62 322 7.8 12.2 0.00 0.00 0.00 47
20260509192948 62 244 1.7 9.6 0.00 0.00 0.00 45
20260509192448 62 309 1.7 10.4 0.00 0.00 0.00 45
20260509191948 62 270 6.1 15.6 0.00 0.00 0.00 44
20260509191448 62 253 4.3 13.9 0.00 0.00 0.00 45
20260509190948 62 267 3.5 8.7 0.00 0.00 0.00 47
20260509190448 61 260 4.3 8.7 0.00 0.00 0.00 47
20260509185948 62 315 2.6 10.4 0.00 0.00 0.00 47
20260509185448 61 253 3.5 14.8 0.00 0.00 0.00 46
20260509184948 61 253 2.6 14.8 0.00 0.00 0.00 47
20260509184448 61 306 7.8 9.6 0.00 0.00 0.00 49
20260509183948 61 278 4.3 14.8 0.00 0.00 0.00 48
20260509183448 61 234 6.1 14.8 0.00 0.00 0.00 46
20260509182948 61 285 7.8 16.5 0.00 0.00 0.00 46
20260509182448 61 319 4.3 14.8 0.00 0.00 0.00 45
20260509181948 61 286 7.8 12.2 0.00 0.00 0.00 48
20260509181448 61 250 3.5 9.6 0.00 0.00 0.00 47
20260509180948 61 307 4.3 11.3 0.00 0.00 0.00 48
20260509180448 61 275 7.8 11.3 0.00 0.00 0.00 49
20260509175948 62 281 3.5 8.7 0.00 0.00 0.00 50
20260509175448 61 281 4.3 10.4 0.00 0.00 0.00 50
20260509174948 61 272 5.2 11.3 0.00 0.00 0.00 49
20260509174448 61 320 4.3 9.6 0.00 0.00 0.00 53
20260509173948 61 282 4.3 11.3 0.00 0.00 0.00 51
20260509173448 61 248 4.3 13.0 0.00 0.00 0.00 51
20260509172948 61 262 1.7 11.3 0.00 0.00 0.00 50
20260509172448 60 271 7.0 9.6 0.00 0.00 0.00 52
20260509171948 60 43 5.2 12.2 0.00 0.00 0.00 51
20260509171448 60 234 2.6 15.6 0.00 0.00 0.00 51
20260509170948 60 181 3.5 13.9 0.00 0.00 0.00 54
20260509170448 59 265 5.2 14.8 0.00 0.00 0.00 54
20260509165948 59 223 5.2 11.3 0.00 0.00 0.00 55
20260509165448 59 246 2.6 9.6 0.00 0.00 0.00 53
20260509164948 58 293 0.9 7.0 0.00 0.00 0.00 54
20260509164448 58 264 1.7 10.4 0.00 0.00 0.00 55
20260509163948 58 285 1.7 10.4 0.00 0.00 0.00 53
20260509163448 58 296 0.0 7.0 0.00 0.00 0.00 54
20260509162948 57 230 4.3 7.8 0.00 0.00 0.00 54
20260509162448 57 241 5.2 7.8 0.00 0.00 0.00 55
20260509161948 57 264 1.7 7.0 0.00 0.00 0.00 54
20260509161448 57 275 2.6 6.1 0.00 0.00 0.00 54
20260509160948 57 132 0.9 5.2 0.00 0.00 0.00 54
20260509160448 57 291 0.0 9.6 0.00 0.00 0.00 53
20260509155948 57 282 3.5 7.0 0.00 0.00 0.00 53
20260509155448 57 315 0.9 4.3 0.00 0.00 0.00 53
20260509154948 57 282 1.7 6.1 0.00 0.00 0.00 54
20260509154448 57 262 2.6 7.8 0.00 0.00 0.00 54
20260509153948 56 270 3.5 7.0 0.00 0.00 0.00 54
20260509153448 56 298 4.3 7.8 0.00 0.00 0.00 54
20260509152948 56 23 6.1 6.1 0.00 0.00 0.00 55
20260509152448 56 208 0.0 9.6 0.00 0.00 0.00 55
20260509151948 56 300 2.6 6.1 0.00 0.00 0.00 56
20260509151448 56 340 3.5 8.7 0.00 0.00 0.00 54
20260509150948 55 285 5.2 7.8 0.00 0.00 0.00 56
20260509150448 55 351 5.2 8.7 0.00 0.00 0.00 56
20260509145949 55 302 4.3 7.8 0.00 0.00 0.00 55
20260509145448 55 305 5.2 10.4 0.00 0.00 0.00 54
20260509144949 56 307 3.5 8.7 0.00 0.00 0.00 54
20260509144449 56 315 1.7 10.4 0.00 0.00 0.00 53
20260509143949 56 313 5.2 10.4 0.00 0.00 0.00 54
20260509143449 56 345 4.3 7.8 0.00 0.00 0.00 53
20260509142949 56 313 2.6 11.3 0.00 0.00 0.00 52
20260509142449 56 307 4.3 9.6 0.00 0.00 0.00 52
20260509141949 56 303 3.5 7.8 0.00 0.00 0.00 53
20260509141449 56 232 3.5 6.1 0.00 0.00 0.00 53
20260509140949 56 350 0.9 7.8 0.00 0.00 0.00 54
20260509140449 55 277 5.2 9.6 0.00 0.00 0.00 53
20260509135949 55 312 2.6 6.1 0.00 0.00 0.00 54
20260509135449 55 315 3.5 8.7 0.00 0.00 0.00 53
20260509134949 55 322 2.6 10.4 0.00 0.00 0.00 53
20260509134449 55 319 1.7 7.8 0.00 0.00 0.00 54
20260509133949 55 337 2.6 9.6 0.00 0.00 0.00 53
20260509133449 55 274 2.6 7.8 0.00 0.00 0.00 55
20260509132949 55 343 4.3 6.1 0.00 0.00 0.00 53
20260509132449 55 241 0.9 9.6 0.00 0.00 0.00 52
20260509131949 55 194 2.6 10.4 0.00 0.00 0.00 53
20260509131449 55 317 5.2 8.7 0.00 0.00 0.00 52
20260509130949 55 306 0.9 8.7 0.00 0.00 0.00 52
20260509130449 54 11 3.5 7.0 0.00 0.00 0.00 53
20260509125949 54 288 5.2 7.8 0.00 0.00 0.00 52
20260509125449 54 272 0.9 7.0 0.00 0.00 0.00 53
20260509124949 54 305 0.0 7.0 0.00 0.00 0.00 52
20260509124449 53 225 1.7 5.2 0.00 0.00 0.00 53
20260509123949 53 244 0.0 5.2 0.00 0.00 0.00 53
20260509123449 53 337 0.0 4.3 0.00 0.00 0.00 55
20260509122949 52 289 3.5 6.1 0.00 0.00 0.00 54
20260509122449 52 338 0.0 2.6 0.00 0.00 0.00 58
20260509121949 52 81 0.0 0.0 0.00 0.00 0.00 57
20260509121449 51 81 0.0 0.0 0.00 0.00 0.00 57
20260509120949 51 81 0.0 0.0 0.00 0.00 0.00 58
20260509120449 51 81 0.0 0.0 0.00 0.00 0.00 58
20260509115949 51 81 0.0 0.0 0.00 0.00 0.00 57
20260509115449 51 81 0.0 0.0 0.00 0.00 0.00 57
20260509114949 51 81 0.0 2.6 0.00 0.00 0.00 56
20260509114449 51 57 1.7 3.5 0.00 0.00 0.00 56
20260509113949 51 81 0.0 3.5 0.00 0.00 0.00 56
20260509113449 51 81 3.5 3.5 0.00 0.00 0.00 56
20260509112949 51 90 0.0 2.6 0.00 0.00 0.00 56
20260509112449 51 63 0.0 3.5 0.00 0.00 0.00 56
20260509111949 51 71 3.5 3.5 0.00 0.00 0.00 56
20260509111449 51 66 0.9 2.6 0.00 0.00 0.00 56
20260509110949 51 60 0.0 0.0 0.00 0.00 0.00 56
20260509110449 51 60 0.0 1.7 0.00 0.00 0.00 56
20260509105949 51 25 0.9 1.7 0.00 0.00 0.00 57
20260509105449 51 8 0.9 2.6 0.00 0.00 0.00 57
20260509104949 50 18 1.7 2.6 0.00 0.00 0.00 58
20260509104449 50 352 0.9 5.2 0.00 0.00 0.00 57
20260509103949 51 23 3.5 5.2 0.00 0.00 0.00 56
20260509103449 51 340 1.7 6.1 0.00 0.00 0.00 53
20260509102949 51 347 5.2 6.1 0.00 0.00 0.00 53
20260509102449 51 18 0.9 7.0 0.00 0.00 0.00 53
20260509101949 51 327 4.3 7.0 0.00 0.00 0.00 52
20260509101449 52 348 2.6 6.1 0.00 0.00 0.00 51
20260509100949 52 340 5.2 7.8 0.00 0.00 0.00 50
20260509100449 53 32 3.5 7.0 0.00 0.00 0.00 47
20260509095949 53 272 3.5 7.0 0.00 0.00 0.00 47
20260509095449 53 279 2.6 7.0 0.00 0.00 0.00 47